RW6A-13 Weather Reports


time (UTC)temp
F
wind
direction
speed
knots
gust
knots
rain 1hr
in
rain 24hr
in
rain mn
in
humidity
%
barometer
mb
20260504050346 50 90 2.6 9.6 0.00 0.00 0.00 81 1008.3
20260504045847 50 45 4.3 9.6 0.00 0.00 0.00 81 1008.2
20260504045347 50 90 4.3 9.6 0.00 0.00 0.00 80 1008.1
20260504044847 50 90 3.5 9.6 0.00 0.00 0.00 80 1008.2
20260504044346 50 135 4.3 11.3 0.00 0.00 0.00 80 1008.2
20260504043847 50 45 3.5 12.2 0.00 0.00 0.00 81 1008.2
20260504043347 50 45 2.6 12.2 0.00 0.00 0.00 81 1008.3
20260504042846 50 45 4.3 7.0 0.00 0.00 0.00 81 1008.3
20260504042346 50 135 3.5 7.0 0.00 0.00 0.00 81 1008.3
20260504041846 50 45 3.5 7.0 0.00 0.00 0.00 81 1008.2
20260504041347 50 45 4.3 7.8 0.00 0.00 0.00 81 1008.2
20260504040846 50 68 3.5 8.7 0.00 0.00 0.00 81 1008.2
20260504040346 50 0 3.5 9.6 0.00 0.00 0.00 82 1008.2
20260504035846 49 90 2.6 6.1 0.00 0.00 0.00 82 1008.2
20260504035347 49 45 3.5 6.1 0.00 0.00 0.00 83 1008.2
20260504034846 49 45 2.6 7.8 0.00 0.00 0.00 83 1008.2
20260504034346 49 90 3.5 8.7 0.00 0.00 0.00 83 1008.2
20260504033846 49 90 1.7 6.1 0.00 0.00 0.00 83 1008.2
20260504033345 49 90 1.7 7.8 0.00 0.00 0.00 83 1008.3
20260504032846 49 90 1.7 6.1 0.00 0.00 0.00 83 1008.2
20260504032346 49 45 1.7 6.1 0.00 0.00 0.00 83 1008.3
20260504031845 49 0 3.5 6.1 0.00 0.00 0.00 83 1008.2
20260504031346 49 45 1.7 8.7 0.00 0.00 0.00 83 1008.1
20260504030846 49 90 2.6 7.0 0.00 0.00 0.00 82 1008.1
20260504030346 49 135 1.7 5.2 0.00 0.00 0.00 82 1008.2
20260504025845 49 90 2.6 7.0 0.00 0.00 0.00 82 1008.0
20260504025346 49 90 1.7 6.1 0.00 0.00 0.00 82 1007.9
20260504024846 49 90 1.7 7.0 0.00 0.00 0.00 82 1007.9
20260504024346 49 90 2.6 7.0 0.00 0.00 0.00 82 1007.9
20260504023845 49 68 3.5 7.0 0.00 0.00 0.00 81 1007.9
20260504023345 49 45 1.7 7.0 0.00 0.00 0.00 81 1007.9
20260504022846 49 113 2.6 8.7 0.00 0.00 0.00 81 1007.8
20260504022345 49 45 1.7 8.7 0.00 0.00 0.00 81 1007.8
20260504021845 49 90 2.6 7.0 0.00 0.00 0.00 81 1007.8
20260504021346 49 90 4.3 7.0 0.00 0.00 0.00 81 1007.8
20260504020845 49 68 3.5 7.0 0.00 0.00 0.00 81 1007.8
20260504020345 48 23 3.5 6.1 0.00 0.00 0.00 82 1007.8
20260504015845 48 68 1.7 6.1 0.00 0.00 0.00 82 1007.8
20260504015346 48 90 1.7 6.1 0.00 0.00 0.00 82 1007.8
20260504014845 48 45 2.6 7.0 0.00 0.00 0.00 82 1007.9
20260504014345 48 45 1.7 5.2 0.00 0.00 0.00 82 1007.9
20260504013845 48 90 1.7 4.3 0.00 0.00 0.00 82 1008.0
20260504013344 48 90 1.7 4.3 0.00 0.00 0.00 82 1008.1
20260504012845 48 135 1.7 7.0 0.00 0.00 0.00 82 1008.1
20260504012345 48 90 1.7 3.5 0.00 0.00 0.00 82 1008.2
20260504011845 48 45 1.7 7.8 0.00 0.00 0.00 82 1008.2
20260504011344 48 90 2.6 6.1 0.00 0.00 0.00 82 1008.3
20260504010845 48 45 1.7 7.0 0.00 0.00 0.00 82 1008.3
20260504010345 48 90 1.7 7.0 0.00 0.00 0.00 82 1008.3
20260504005845 48 90 1.7 7.0 0.00 0.00 0.00 83 1008.3
20260504005344 48 135 1.7 6.1 0.00 0.00 0.00 82 1008.2
20260504004845 48 90 1.7 6.1 0.00 0.00 0.00 83 1008.3
20260504004345 48 45 0.9 4.3 0.00 0.00 0.00 83 1008.2
20260504003844 48 270 0.9 4.3 0.00 0.00 0.00 83 1008.3
20260504003344 47 0 1.7 7.0 0.00 0.00 0.00 84 1008.2
20260504002845 47 90 1.7 7.0 0.00 0.00 0.00 84 1008.3
20260504002345 47 90 0.0 6.1 0.00 0.00 0.00 84 1008.3
20260504001844 47 0 1.7 3.5 0.00 0.00 0.00 85 1008.5
20260504001344 47 45 2.6 6.1 0.00 0.00 0.00 85 1008.5
20260504000845 47 68 1.7 6.1 0.00 0.00 0.00 85 1008.6
20260504000344 47 90 0.9 4.3 0.00 0.00 0.00 84 1008.7
20260503235844 47 90 0.9 4.3 0.00 0.00 0.00 84 1008.9
20260503235344 47 90 1.7 6.1 0.00 0.00 0.00 84 1008.9
20260503234843 47 90 1.7 4.3 0.00 0.00 0.00 84 1009.0
20260503234344 47 45 1.7 6.1 0.00 0.00 0.00 84 1009.1
20260503233844 47 90 1.7 7.0 0.00 0.00 0.00 84 1009.0
20260503233344 47 90 1.7 6.1 0.00 0.00 0.00 84 1009.1
20260503232844 47 45 1.7 6.1 0.00 0.00 0.00 84 1009.2
20260503232344 47 68 1.7 5.2 0.00 0.00 0.00 84 1009.2
20260503231844 47 158 0.9 6.1 0.00 0.00 0.00 84 1009.2
20260503231343 47 90 0.9 4.3 0.00 0.00 0.00 85 1009.3
20260503230843 47 23 1.7 4.3 0.00 0.00 0.00 85 1009.3
20260503230344 47 90 1.7 4.3 0.00 0.00 0.00 85 1009.4
20260503225843 47 225 0.0 1.7 0.00 0.00 0.00 85 1009.3
20260503225343 47 90 0.9 4.3 0.00 0.00 0.00 86 1009.3
20260503224844 47 0 1.7 4.3 0.00 0.00 0.00 86 1009.2
20260503224344 47 45 0.0 4.3 0.00 0.00 0.00 86 1009.3
20260503223843 46 90 1.7 4.3 0.00 0.00 0.00 87 1009.2
20260503223343 46 90 0.0 3.5 0.00 0.00 0.00 87 1009.2
20260503222844 46 270 0.0 3.5 0.00 0.00 0.00 88 1009.1
20260503222343 46 0 0.0 1.7 0.00 0.00 0.00 88 1009.1
20260503221843 46 0 0.0 0.9 0.00 0.00 0.00 88 1009.2
20260503221343 46 45 0.0 1.7 0.00 0.00 0.00 88 1009.4
20260503220844 46 45 0.0 0.0 0.00 0.00 0.00 88 1009.5
20260503220342 46 0 0.0 0.0 0.00 0.00 0.00 88 1009.7
20260503215842 46 45 0.0 1.7 0.00 0.00 0.00 87 1009.7
20260503215343 46 45 0.0 1.7 0.00 0.00 0.00 87 1009.6
20260503214842 46 45 0.0 0.0 0.00 0.00 0.00 87 1009.9
20260503213811 47 0 0.0 0.0 0.00 0.00 0.00 86 1010.0
20260503213310 47 0 0.0 0.0 0.00 0.00 0.00 86 1010.1
20260503212811 47 0 0.0 0.9 0.00 0.00 0.00 86 1010.0
20260503212311 47 45 0.0 0.0 0.00 0.00 0.00 86 1010.1
20260503211811 47 45 0.0 1.7 0.00 0.00 0.00 86 1010.2
20260503211310 47 90 0.0 1.7 0.00 0.00 0.00 86 1010.2
20260503210810 47 45 0.0 0.0 0.00 0.00 0.00 86 1010.2
20260503210311 47 45 0.0 0.0 0.00 0.00 0.00 86 1010.3
20260503205810 47 45 0.0 0.9 0.00 0.00 0.00 85 1010.3
20260503205310 47 45 0.0 1.7 0.00 0.00 0.00 85 1010.4
20260503204810 47 45 0.0 0.9 0.00 0.00 0.00 85 1010.4
20260503204310 47 0 0.0 1.7 0.00 0.00 0.00 85 1010.4
20260503203810 47 68 0.0 0.9 0.00 0.00 0.00 85 1010.6
20260503203310 47 45 0.0 1.7 0.00 0.00 0.00 85 1010.5
20260503202810 47 0 0.0 0.0 0.00 0.00 0.00 85 1010.4
20260503202310 47 45 0.0 0.0 0.00 0.00 0.00 84 1010.4
20260503201809 47 45 0.0 1.7 0.00 0.00 0.00 84 1010.5
20260503201310 48 45 0.0 1.7 0.00 0.00 0.00 83 1010.4
20260503200810 48 0 0.0 1.7 0.00 0.00 0.00 83 1010.4
20260503200309 48 45 0.0 1.7 0.00 0.00 0.00 83 1010.4
20260503195809 48 90 0.0 1.7 0.00 0.00 0.00 84 1010.4
20260503195310 48 45 0.0 0.9 0.00 0.00 0.00 83 1010.4
20260503194810 48 45 0.0 1.7 0.00 0.00 0.00 83 1010.5
20260503194309 48 45 0.0 0.9 0.00 0.00 0.00 83 1010.6
20260503193810 48 45 0.0 0.9 0.00 0.00 0.00 83 1010.6
20260503193310 48 45 0.0 1.7 0.00 0.00 0.00 83 1010.6
20260503192810 48 0 0.0 0.0 0.00 0.00 0.00 83 1010.7
20260503192309 48 0 0.0 0.0 0.00 0.00 0.00 83 1010.7
20260503191809 48 0 0.0 0.0 0.00 0.00 0.00 83 1010.8
20260503191310 49 0 0.0 0.0 0.00 0.00 0.00 83 1010.8
20260503190809 49 0 0.0 0.0 0.00 0.00 0.00 83 1011.0
20260503190309 49 0 0.0 0.0 0.00 0.00 0.00 82 1011.0
20260503185809 49 0 0.0 0.0 0.00 0.00 0.00 81 1011.1
20260503185310 49 0 0.0 1.7 0.00 0.00 0.00 81 1011.1
20260503184809 50 45 0.0 1.7 0.00 0.00 0.00 80 1011.2
20260503184309 50 90 0.0 1.7 0.00 0.00 0.00 80 1011.3
20260503183810 50 90 0.0 0.9 0.00 0.00 0.00 80 1011.3
20260503183309 50 90 0.0 1.7 0.00 0.00 0.00 80 1011.3
20260503182809 50 90 0.9 1.7 0.00 0.00 0.00 80 1011.4
20260503182310 50 90 0.0 1.7 0.00 0.00 0.00 80 1011.5
20260503181808 50 90 0.0 1.7 0.00 0.00 0.00 80 1011.5
20260503181309 50 45 0.0 1.7 0.00 0.00 0.00 79 1011.6
20260503180809 51 90 0.0 2.6 0.00 0.00 0.00 79 1011.7
20260503180309 51 68 0.0 1.7 0.00 0.00 0.00 78 1011.7
20260503175808 51 45 0.0 1.7 0.00 0.00 0.00 78 1011.7
20260503175309 51 45 0.0 0.9 0.00 0.00 0.00 78 1011.7
20260503174809 51 0 0.0 1.7 0.00 0.00 0.00 77 1011.8
20260503174309 51 45 0.0 1.7 0.00 0.00 0.00 77 1011.7
20260503173808 51 90 0.0 1.7 0.00 0.00 0.00 77 1011.6
20260503173309 51 90 0.0 2.6 0.00 0.00 0.00 76 1011.6
20260503172808 51 90 0.9 1.7 0.00 0.00 0.00 76 1011.6
20260503172308 51 90 0.9 3.5 0.00 0.00 0.00 76 1011.6
20260503171808 51 90 0.9 1.7 0.00 0.00 0.00 75 1011.6
20260503171309 52 45 0.0 1.7 0.00 0.00 0.00 74 1011.6
20260503170808 52 90 0.0 1.7 0.00 0.00 0.00 74 1011.6
20260503170308 52 90 0.9 2.6 0.00 0.00 0.00 73 1011.7
20260503150807 55 90 2.6 5.2 0.00 0.00 0.00 62 1011.3
20260503150307 56 113 2.6 9.6 0.00 0.00 0.00 62 1011.4
20260503140306 57 45 2.6 7.0 0.00 0.00 0.00 58 1011.8
20260503131306 57 135 4.3 9.6 0.00 0.00 0.00 58 1012.0
20260503130806 57 135 4.3 9.6 0.00 0.00 0.00 59 1012.0
20260503130306 57 90 3.5 6.1 0.00 0.00 0.00 57 1012.1
20260503110804 58 90 4.3 8.7 0.00 0.00 0.00 55 1013.2
20260503110305 58 0 2.6 7.0 0.00 0.00 0.00 54 1013.1
20260503090304 56 90 1.7 7.0 0.00 0.00 0.00 56 1013.9
20260503081304 58 45 3.5 7.8 0.00 0.00 0.00 54 1014.3
20260503080803 56 90 2.6 7.8 0.00 0.00 0.00 55 1014.3
20260503080303 56 90 2.6 7.0 0.00 0.00 0.00 52 1014.3
20260503072803 56 90 4.3 9.6 0.00 0.00 0.00 56 1014.5
20260503072305 56 90 2.6 9.6 0.00 0.00 0.00 58 1014.6
20260503071803 56 45 1.7 7.8 0.00 0.00 0.00 60 1014.6
20260503071303 56 68 4.3 8.7 0.00 0.00 0.00 55 1014.6
20260503070803 57 0 4.3 9.6 0.00 0.00 0.00 57 1014.7
20260503070304 57 90 2.6 8.7 0.00 0.00 0.00 57 1014.7
20260503060301 56 23 0.9 3.5 0.00 0.00 0.00 64 1015.0
20260503054801 54 0 0.9 4.3 0.00 0.00 0.00 68 1014.9
20260503054301 54 90 1.7 4.3 0.00 0.00 0.00 66 1015.0
20260503053802 55 45 1.7 4.3 0.00 0.00 0.00 65 1015.0
20260503053301 54 45 0.9 4.3 0.00 0.01 0.00 69 1015.1
20260503052801 54 90 1.7 3.5 0.00 0.01 0.00 68 1015.1